User: anonymous   Login
Location: Ethel Rock
(53.4667°N, 4.5667°W)
Time: 09:43:22
(UTC+00:00)
Language:

Cosmos 2237 Rocket - Orbit

View from above orbital plane
View from above orbital plane
View from above satellite
View from above satellite

Ground track
Ground track

The orbit data is extracted from the following two-line orbital elements,

1 22566U 93016B   21018.87371911  .00000332  00000-0  19583-3 0  9996
2 22566  71.0059 193.5606 0012258 292.8528  67.1300 14.14970735436808
Epoch (UTC): 18 January 2021 20:58:09
Eccentricity: 0.0012258
inclination: 71.0059°
perigee height: 833 km
apogee height: 851 km
right ascension of ascending node: 193.5606°
argument of perigee: 292.8528°
revolutions per day: 14.14970735
mean anomaly at epoch: 67.1300°
orbit number at epoch: 43680

The dashed part of the orbit path shows where the satellite is in the earth's shadow,  

DLR